Regional Weather Roundup
Issued by NWS

Home | Current Version | Previous Version | Text Only | Print | Product List | Glossary Off
Versions: 1 2 3 4 5 6 7 8 9 10 11 12 13 14 15 16 17 18 19 20 21 22 23 24 25 26 27 28 29 30 31 32 33 34 35 36 37 38 39 40 41 42 43 44 45 46 47 48 49 50

000
ASUS43 KDTX 100410
RWRMI
MICHIGAN HOURLY REGIONAL WEATHER ROUNDUP
NATIONAL WEATHER SERVICE DETROIT/PONTIAC MI
1200 AM EDT THU JUL 10 2014

NOTE: "FAIR" INDICATES FEW OR NO CLOUDS BELOW 12,000 FEET WITH NO
SIGNIFICANT WEATHER AND/OR OBSTRUCTION TO VISIBILITY.

MIZ047>049-052>055-059>063-066>070-074>076-081>083-100500-
SOUTHEAST LOWER MICHIGAN

CITY           SKY/WX    TMP DP  RH WIND       PRES   REMARKS
ADRIAN         CLEAR     64  54  69 N7        30.04R
ALMA           MOCLDY    61  53  75 NW5       30.04S
ANN ARBOR      PTCLDY    56  53  90 CALM      30.04R
BAD AXE        CLEAR     53  51  95 CALM      30.04R
CARO           PTCLDY    57  57  99 CALM      30.03R
DETROIT CITY   CLOUDY    70  54  56 CALM      30.03R
DETROIT        MOCLDY    68  56  65 CALM      30.04R
FLINT          PTCLDY    61  55  81 CALM      30.03R
GROSSE ILE     CLEAR     68  57  68 CALM      30.02R
HILLSDALE      CLEAR     57  57  99 CALM      30.06R
HOWELL         MOCLDY    59  56  91 CALM      30.04R

CITY           SKY/WX    TMP DP  RH WIND       PRES   REMARKS
JACKSON        CLEAR     60  55  83 SW3       30.05R
LAMBERTVILLE   CLEAR     61  55  82 CALM      30.03S
LANSING        CLEAR     60  52  74 NW5       30.05R
LAPEER         CLOUDY    58  55  89 CALM      30.03R
MASON          CLEAR     58  55  89 CALM      30.04R
MONROE         PTCLDY    64  57  77 CALM      30.02R
MT. CLEMENS    MOCLDY    61  56  84 CALM      30.02R
PONTIAC        PTCLDY    61  54  77 CALM      30.03R
PORT HOPE        N/A     55  53  93 S3        30.02R
PORT HURON       N/A     54  54 100 CALM      30.04R FOG
TRI CITIES     MOCLDY    63  53  70 N8        30.04R
TROY           PTCLDY    65  53  65 CALM      30.05R
SAGINAW HB     MOCLDY    63  54  72 NW3       30.02R
$$
MIZ043>046-050>051-056>058-064>065-071>073-077>080-100500-
SOUTHWEST LOWER MICHIGAN

CITY           SKY/WX    TMP DP  RH WIND       PRES   REMARKS
BATTLE CREEK   CLEAR     62  53  72 NW6       30.06R
BENTON HARBOR  CLEAR     57  56  96 CALM      30.06R
BIG RAPIDS     CLEAR     56  50  81 CALM      30.05S
COLDWATER      CLEAR     59  57  93 CALM      30.06R
FREMONT        FAIR      56  54  95 CALM      30.05S
HOLLAND        CLEAR     62  56  80 NW3       30.06R
GRAND RAPIDS   CLEAR     62  54  74 NW6       30.05R
IONIA          FAIR      61  51  70 NW3       30.04R
KALAMAZOO      CLEAR     61  54  77 NW5       30.06R
LUDINGTON      CLEAR     52  51  95 CALM      30.07R FOG
MARSHALL       CLEAR     57  54  90 CALM      30.05R
MOUNT PLEASANT PTCLDY    60  54  78 CALM      30.04R
MUSKEGON       CLEAR     59  54  83 CALM      30.05S
SOUTH HAVEN    CLEAR     57  57 100 CALM      30.06R
$$
MIZ016>042-100500-
NORTHERN LOWER MICHIGAN

CITY           SKY/WX    TMP DP  RH WIND       PRES   REMARKS
ALPENA         CLOUDY    55  52  89 CALM      30.05R
BEAVER ISLAND  CLEAR     47  47 100 CALM      30.06S FOG
BELLAIRE       CLEAR     51  49  94 CALM      30.06R FOG
CADILLAC       CLOUDY    53  51  94 NW3       30.06S
CHARLEVOIX     CLEAR     54  51  90 SW3       30.08S
FRANKFORT      CLEAR     52  49  89 CALM      30.07R
GAYLORD        CLEAR     53  49  86 W5        30.06R
GRAYLING       CLEAR     50  50  99 CALM      30.07S
HARBOR SPRINGS CLEAR     52  51  97 CALM      30.04S
HOUGHTON LAKE  PTCLDY    56  50  80 N5        30.06R
MANISTEE       MOCLDY    52  48  87 CALM      30.07S
OSCODA         CLEAR     54  52  94 CALM      30.03R
PELLSTON       CLEAR     50  49  96 W3        30.06R
ROGERS CITY    CLEAR     55  51  86 N3        30.06R
TRAVERSE CITY  CLEAR     55  51  86 CALM      30.05R
$$
MIZ007>008-015-100500-
EASTERN UPPER MICHIGAN

CITY           SKY/WX    TMP DP  RH WIND       PRES   REMARKS
KINROSS        PTCLDY    50  48  93 NW6       30.04S
MACKINAC ISLAN PTCLDY    52  48  87 N5        30.05R
NEWBERRY       CLEAR     45  44  95 CALM      30.04S
S. S. MARIE    PTCLDY    48  44  86 W6        30.04R
MUNISING         N/A     50  45  83 S8        30.04R
$$
MIZ004>006-011>014-085-100500-
CENTRAL UPPER MICHIGAN

CITY           SKY/WX    TMP DP  RH WIND       PRES   REMARKS
MANISTIQUE     CLEAR     44  43  97 CALM      30.05R
ESCANABA       CLEAR     52  48  87 CALM      30.05S
MENOMINEE      CLEAR     54  50  87 CALM      30.05R
SAWYER-GWINN   CLEAR     52  47  83 CALM      30.06R
$$
MIZ001>003-009>011-084-100500-
WESTERN UPPER MICHIGAN

CITY           SKY/WX    TMP DP  RH WIND       PRES   REMARKS
IRON MOUNTAIN  CLEAR     50  47  89 CALM      30.05R
HOUGHTON       CLEAR     52  43  71 NW7       30.03R
COPPER HARBOR    N/A     51  47  86 CALM      30.03R
$$

ABBREVIATIONS USED IN REMARKS
   TC - TEMPERATURE IN CELSIUS
  WCI - WIND CHILL INDEX
   HX - HEAT INDEX
  VSB - VISIBILITY



USA.gov is the U.S. government's official web portal to all federal, state and local government web resources and services.